TimeCDT,TemperatureF,Dew PointF,Humidity,Sea Level PressureIn,VisibilityMPH,Wind Direction,Wind SpeedMPH,Gust SpeedMPH,PrecipitationIn,Events,Conditions,WindDirDegrees,DateUTC
12:55 AM,75.0,71.1,87,30.09,10.0,SE,5.8,-,N/A,,Clear,130,2013-08-22 05:55:00
1:55 AM,73.9,71.1,91,30.08,10.0,SE,4.6,-,N/A,,Clear,140,2013-08-22 06:55:00
2:55 AM,73.9,72.0,93,30.06,10.0,ESE,4.6,-,N/A,,Clear,110,2013-08-22 07:55:00
3:55 AM,73.0,71.1,93,30.06,10.0,Calm,Calm,-,N/A,,Clear,0,2013-08-22 08:55:00
4:55 AM,73.0,71.1,93,30.07,10.0,Calm,Calm,-,N/A,,Clear,0,2013-08-22 09:55:00
5:55 AM,73.0,71.1,93,30.08,10.0,Calm,Calm,-,N/A,,Clear,0,2013-08-22 10:55:00
6:55 AM,73.0,71.1,93,30.09,10.0,East,3.5,-,N/A,,Clear,80,2013-08-22 11:55:00
7:55 AM,75.9,72.0,87,30.10,10.0,Calm,Calm,-,N/A,,Clear,0,2013-08-22 12:55:00
8:55 AM,81.0,72.0,74,30.11,10.0,Variable,3.5,-,N/A,,Clear,0,2013-08-22 13:55:00
9:55 AM,84.0,71.1,65,30.10,10.0,Calm,Calm,-,N/A,,Clear,0,2013-08-22 14:55:00
10:55 AM,86.0,70.0,59,30.10,10.0,Calm,Calm,-,N/A,,Partly Cloudy,0,2013-08-22 15:55:00
11:55 AM,91.0,66.9,45,30.08,10.0,NNE,6.9,-,N/A,,Mostly Cloudy,30,2013-08-22 16:55:00
12:55 PM,93.0,66.9,42,30.06,10.0,ESE,4.6,-,N/A,,Partly Cloudy,110,2013-08-22 17:55:00
1:55 PM,93.9,64.9,38,30.04,10.0,ESE,8.1,-,N/A,,Scattered Clouds,120,2013-08-22 18:55:00
2:55 PM,95.0,66.0,38,30.01,10.0,ENE,8.1,-,N/A,,Mostly Cloudy,70,2013-08-22 19:55:00
3:55 PM,96.1,66.0,37,29.98,10.0,NE,12.7,21.9,N/A,,Partly Cloudy,50,2013-08-22 20:55:00
4:00 PM,-9999,-9999,N/A,-9999,-9999.0,North,-9999.0,-,N/A,,Unknown,0,2013-08-22 21:00:00
4:55 PM,93.9,64.9,38,29.98,10.0,Variable,4.6,-,N/A,,Clear,0,2013-08-22 21:55:00
5:55 PM,93.9,64.9,38,29.97,10.0,East,9.2,16.1,N/A,,Clear,90,2013-08-22 22:55:00
6:55 PM,91.0,66.9,45,29.96,10.0,East,8.1,-,N/A,,Clear,80,2013-08-22 23:55:00
7:55 PM,87.1,68.0,53,29.97,10.0,East,4.6,-,N/A,,Clear,80,2013-08-23 00:55:00
8:55 PM,84.0,68.0,58,29.99,10.0,ENE,4.6,-,N/A,,Clear,70,2013-08-23 01:55:00
9:55 PM,82.0,69.1,65,30.01,10.0,East,3.5,-,N/A,,Clear,90,2013-08-23 02:55:00
10:55 PM,80.1,69.1,69,30.02,10.0,Calm,Calm,-,N/A,,Clear,0,2013-08-23 03:55:00
11:55 PM,80.1,70.0,71,30.02,10.0,Calm,Calm,-,N/A,,Clear,0,2013-08-23 04:55:00